Location: Zagreb
(45.8000°N, 16.0000°E)
Time: 19:10:58
(UTC+02:00)

A-11 Canister half - Pass Details

Date: 12 August 2022
Orbit: 1524 x 1684 km, 47.3° (Epoch: 05 October)

Event Time Altitude Azimuth Distance (km) Brightness Sun altitude
Rises 10:22:18 0° 283° (WNW) 4,941 11.2 44.7°
Reaches altitude 10° 10:25:28 10° 283° (WNW) 3,949 10.8 45.1°
Maximum altitude 10:35:41 89° 196° (SSW) 1,669 10.1 46.7°
Drops below altitude 10° 10:45:39 10° 108° (ESE) 3,858 12.0 48.1°
Sets 10:48:43 0° 108° (ESE) 4,822 12.2 48.5°
